User: anonymous   Login
Location: Cazarilh
(42.9578°N, 0.5819°E)
Time: 07:01:49
(UTC+00:00)
Language:

CZ-4B R/B - Orbit

View from above orbital plane
View from above orbital plane
View from above satellite
View from above satellite

Ground track
Ground track

The orbit data is extracted from the following two-line orbital elements,

1 27432U 02024C   20056.90659882 -.00000034 +00000-0 +58807-5 0  9997
2 27432 099.0862 057.1984 0051178 133.1087 285.7057 14.14089616917745
Epoch (UTC): 25 February 2020 21:45:30
Eccentricity: 0.0051178
inclination: 99.0862°
perigee height: 808 km
apogee height: 882 km
right ascension of ascending node: 57.1984°
argument of perigee: 133.1087°
revolutions per day: 14.14089616
mean anomaly at epoch: 285.7057°
orbit number at epoch: 91774

The dashed part of the orbit path shows where the satellite is in the earth's shadow,  

DLR